• In Portugal
  • List of Countries
  • For 7 days
  • Water Temperature
  • Satellite Maps
  • Weather Map
  • Weather Widgets
  • user-avatar
    Login

    Hourly Weather Sliven

    Today, 25 September, Tuesday

    Time Temperature Precipitation Wind Pressure Humidity
    00:00 +11°C° 0.3 mm 8 mps 734 mmHg 57%
    01:00 +11°C° 0.3 mm 7 mps 735 mmHg 58%
    02:00 +10°C° 0 mm 7 mps 735 mmHg 60%
    03:00 +10°C° 0.3 mm 6 mps 736 mmHg 61%
    04:00 +9°C° 0.3 mm 6 mps 737 mmHg 62%
    05:00 +9°C° 0.3 mm 5 mps 737 mmHg 62%
    06:00 +9°C° 0 mm 5 mps 738 mmHg 60%
    07:00 +9°C° 0 mm 5 mps 738 mmHg 59%
    08:00 +9°C° 0 mm 6 mps 738 mmHg 54%
    09:00 +11°C° 0 mm 6 mps 738 mmHg 49%
    10:00 +13°C° 0 mm 6 mps 739 mmHg 44%
    11:00 +15°C° 0 mm 6 mps 739 mmHg 39%
    12:00 +15°C° 0 mm 6 mps 739 mmHg 35%
    13:00 +16°C° 0 mm 6 mps 739 mmHg 31%
    14:00 +17°C° 0 mm 6 mps 739 mmHg 27%
    15:00 +17°C° 0 mm 6 mps 739 mmHg 28%
    16:00 +16°C° 0 mm 5 mps 739 mmHg 28%
    17:00 +16°C° 0 mm 5 mps 739 mmHg 29%
    18:00 +14°C° 0 mm 4 mps 739 mmHg 33%
    19:00 +13°C° 0 mm 3 mps 740 mmHg 38%
    20:00 +12°C° 0 mm 2 mps 740 mmHg 42%
    21:00 +10°C° 0 mm 2 mps 741 mmHg 44%
    22:00 +10°C° 0 mm 2 mps 741 mmHg 45%
    23:00 +9°C° 0 mm 2 mps 742 mmHg 47%

    Tomorrow, 26 September, Wednesday

    Time Temperature Precipitation Wind Pressure Humidity
    00:00 +9°C° 0 mm 2 mps 742 mmHg 49%
    01:00 +8°C° 0 mm 2 mps 742 mmHg 51%
    02:00 +8°C° 0 mm 2 mps 743 mmHg 53%
    03:00 +7°C° 0 mm 2 mps 743 mmHg 56%
    04:00 +7°C° 0 mm 3 mps 743 mmHg 58%
    05:00 +5°C° 0 mm 3 mps 743 mmHg 61%
    06:00 +6°C° 0 mm 4 mps 743 mmHg 57%
    07:00 +7°C° 0 mm 5 mps 744 mmHg 53%
    08:00 +8°C° 0 mm 5 mps 744 mmHg 49%
    09:00 +10°C° 0 mm 6 mps 744 mmHg 44%
    10:00 +11°C° 0 mm 7 mps 745 mmHg 38%
    11:00 +14°C° 0 mm 7 mps 745 mmHg 33%
    12:00 +14°C° 0 mm 7 mps 745 mmHg 32%
    13:00 +15°C° 0 mm 7 mps 744 mmHg 30%
    14:00 +15°C° 0 mm 7 mps 744 mmHg 28%
    15:00 +15°C° 0 mm 7 mps 744 mmHg 30%
    16:00 +14°C° 0 mm 7 mps 744 mmHg 31%
    17:00 +14°C° 0 mm 6 mps 743 mmHg 32%
    18:00 +11°C° 0 mm 6 mps 744 mmHg 35%
    19:00 +10°C° 0 mm 5 mps 744 mmHg 39%
    20:00 +8°C° 0 mm 4 mps 744 mmHg 42%
    21:00 +8°C° 0 mm 4 mps 744 mmHg 44%
    22:00 +7°C° 0 mm 4 mps 745 mmHg 46%
    23:00 +7°C° 0 mm 3 mps 745 mmHg 47%

    Day after tomorrow, 27 September, Thursday

    Time Temperature Precipitation Wind Pressure Humidity
    00:00 +7°C° 0 mm 3 mps 745 mmHg 49%
    01:00 +5°C° 0 mm 3 mps 744 mmHg 50%
    02:00 +5°C° 0 mm 3 mps 744 mmHg 51%
    03:00 +5°C° 0 mm 3 mps 744 mmHg 52%
    04:00 +4°C° 0 mm 3 mps 744 mmHg 53%
    05:00 +4°C° 0 mm 3 mps 744 mmHg 54%
    06:00 +5°C° 0 mm 3 mps 744 mmHg 50%
    07:00 +7°C° 0 mm 3 mps 744 mmHg 45%
    08:00 +9°C° 0 mm 3 mps 744 mmHg 41%
    09:00 +11°C° 0 mm 4 mps 744 mmHg 36%
    10:00 +13°C° 0 mm 4 mps 744 mmHg 31%
    11:00 +14°C° 0 mm 4 mps 744 mmHg 27%
    12:00 +15°C° 0 mm 4 mps 743 mmHg 25%
    13:00 +17°C° 0 mm 4 mps 743 mmHg 23%
    14:00 +18°C° 0 mm 4 mps 742 mmHg 22%
    15:00 +18°C° 0 mm 4 mps 742 mmHg 23%
    16:00 +17°C° 0 mm 4 mps 741 mmHg 24%
    17:00 +17°C° 0 mm 3 mps 741 mmHg 25%
    18:00 +14°C° 0 mm 3 mps 741 mmHg 30%
    19:00 +13°C° 0 mm 2 mps 741 mmHg 35%
    20:00 +11°C° 0 mm 1 mps 741 mmHg 40%
    21:00 +10°C° 0 mm 1 mps 741 mmHg 41%
    22:00 +10°C° 0 mm 1 mps 741 mmHg 43%
    23:00 +10°C° 0 mm 1 mps 740 mmHg 44%

    28 September, Friday

    Time Temperature Precipitation Wind Pressure Humidity
    00:00 +9°C° 0 mm 1 mps 740 mmHg 44%
    01:00 +9°C° 0 mm 1 mps 740 mmHg 43%
    02:00 +9°C° 0 mm 1 mps 740 mmHg 43%
    03:00 +9°C° 0 mm 1 mps 739 mmHg 43%
    04:00 +9°C° 0 mm 1 mps 739 mmHg 43%
    05:00 +9°C° 0 mm 1 mps 738 mmHg 43%
    06:00 +10°C° 0 mm 1 mps 739 mmHg 39%
    07:00 +12°C° 0 mm 1 mps 739 mmHg 36%
    08:00 +13°C° 0 mm 1 mps 739 mmHg 33%
    09:00 +15°C° 0 mm 1 mps 738 mmHg 31%
    10:00 +17°C° 0 mm 2 mps 738 mmHg 28%
    11:00 +19°C° 0 mm 2 mps 738 mmHg 26%
    12:00 +20°C° 0 mm 2 mps 737 mmHg 26%
    13:00 +21°C° 0 mm 2 mps 737 mmHg 25%
    14:00 +23°C° 0 mm 2 mps 736 mmHg 25%
    15:00 +21°C° 0 mm 2 mps 736 mmHg 28%
    16:00 +21°C° 0 mm 2 mps 735 mmHg 30%
    17:00 +20°C° 0 mm 2 mps 735 mmHg 33%
    18:00 +18°C° 0 mm 2 mps 735 mmHg 41%
    19:00 +16°C° 0 mm 2 mps 735 mmHg 48%
    20:00 +14°C° 0 mm 2 mps 734 mmHg 55%
    21:00 +13°C° 0 mm 2 mps 734 mmHg 60%
    22:00 +13°C° 0 mm 1 mps 734 mmHg 64%
    23:00 +12°C° 0 mm 1 mps 734 mmHg 68%

    29 September, Saturday

    Time Temperature Precipitation Wind Pressure Humidity
    00:00 +12°C° 0 mm 1 mps 734 mmHg 69%
    01:00 +12°C° 0 mm 1 mps 734 mmHg 71%
    02:00 +12°C° 0 mm 1 mps 734 mmHg 72%
    03:00 +11°C° 0 mm 1 mps 733 mmHg 72%
    04:00 +11°C° 0 mm 1 mps 733 mmHg 72%
    05:00 +11°C° 0 mm 1 mps 733 mmHg 72%
    06:00 +12°C° 0 mm 1 mps 733 mmHg 66%
    07:00 +13°C° 0 mm 0 mps 733 mmHg 61%
    08:00 +14°C° 0 mm 0 mps 733 mmHg 56%
    09:00 +16°C° 0 mm 0 mps 733 mmHg 49%
    10:00 +20°C° 0 mm 1 mps 733 mmHg 42%
    11:00 +23°C° 0 mm 1 mps 734 mmHg 35%
    12:00 +24°C° 0 mm 1 mps 733 mmHg 33%
    13:00 +24°C° 0 mm 1 mps 733 mmHg 31%
    14:00 +25°C° 0 mm 1 mps 732 mmHg 28%
    15:00 +25°C° 0 mm 1 mps 732 mmHg 30%
    16:00 +24°C° 0 mm 1 mps 732 mmHg 31%
    17:00 +24°C° 0 mm 2 mps 732 mmHg 32%
    18:00 +21°C° 0 mm 2 mps 732 mmHg 38%
    19:00 +19°C° 0 mm 2 mps 733 mmHg 45%
    20:00 +17°C° 0 mm 2 mps 733 mmHg 51%
    21:00 +16°C° 0 mm 2 mps 733 mmHg 54%
    22:00 +16°C° 0 mm 2 mps 733 mmHg 58%
    23:00 +15°C° 0 mm 2 mps 733 mmHg 62%

    30 September, Sunday

    Time Temperature Precipitation Wind Pressure Humidity
    00:00 +15°C° 0 mm 2 mps 733 mmHg 64%
    01:00 +15°C° 0 mm 2 mps 734 mmHg 66%
    02:00 +14°C° 0 mm 2 mps 734 mmHg 69%
    03:00 +14°C° 0 mm 2 mps 734 mmHg 72%
    04:00 +13°C° 0 mm 2 mps 734 mmHg 75%
    05:00 +12°C° 0 mm 3 mps 734 mmHg 79%
    06:00 +12°C° 0 mm 3 mps 735 mmHg 77%
    07:00 +13°C° 0 mm 3 mps 735 mmHg 76%
    08:00 +13°C° 0 mm 4 mps 735 mmHg 75%
    09:00 +15°C° 0 mm 4 mps 735 mmHg 69%
    10:00 +17°C° 0 mm 4 mps 736 mmHg 64%
    11:00 +19°C° 0 mm 4 mps 736 mmHg 59%
    12:00 +19°C° 0 mm 5 mps 736 mmHg 58%
    13:00 +19°C° 0 mm 5 mps 735 mmHg 58%
    14:00 +19°C° 0 mm 5 mps 735 mmHg 58%
    15:00 +19°C° 0 mm 5 mps 735 mmHg 59%
    16:00 +17°C° 0 mm 5 mps 735 mmHg 61%
    17:00 +17°C° 0 mm 5 mps 735 mmHg 62%
    18:00 +17°C° 0 mm 4 mps 735 mmHg 66%
    19:00 +15°C° 0 mm 4 mps 735 mmHg 70%
    20:00 +14°C° 0 mm 3 mps 735 mmHg 74%
    21:00 +14°C° 0 mm 3 mps 735 mmHg 75%
    22:00 +14°C° 0 mm 3 mps 735 mmHg 77%
    23:00 +14°C° 0 mm 3 mps 735 mmHg 79%
    Show more